Regional Weather Roundup
Issued by NWS

Home | Current Version | Previous Version | Graphics & Text | Print | Product List | Glossary On
Versions: 1 2 3 4 5 6 7 8 9 10 11 12 13 14 15 16 17 18 19 20 21 22 23 24 25 26 27 28 29 30 31 32 33 34 35 36 37 38 39 40 41 42 43 44 45 46 47 48 49 50
000
ASUS43 KLOT 090408
RWRIL

ILLINOIS REGIONAL WEATHER ROUNDUP
NATIONAL WEATHER SERVICE CHICAGO/ROMEOVILLE IL
1000 PM CST THU DEC 08 2016

NOTE: "FAIR" INDICATES FEW OR NO CLOUDS BELOW 12,000 FEET WITH NO
SIGNIFICANT WEATHER AND/OR OBSTRUCTIONS TO VISIBILITY.

* THESE STATIONS ARE NOT UNDER NWS QUALITY CONTROL. THEY ALSO MAY NOT
  REPORT WEATHER SUCH AS PRECIPITATION OR FOG.

ILZ001-002-007-009-015-016-024-090500-
NORTHWEST ILLINOIS

CITY           SKY/WX    TMP DP  RH WIND       PRES   REMARKS
MOLINE         CLOUDY    22  10  60 NW14G22   30.50S WCI   9
STERLING*      FLURRIES  22  16  78 W16       30.46S WCI   8
SAVANNA*       CLOUDY    22  15  73 W8G17     30.47S WCI  12
$$

ILZ003-004-008-010-011-017-018-090500-
NORTH CENTRAL ILLINOIS

CITY           SKY/WX    TMP DP  RH WIND       PRES   REMARKS
ROCKFORD       FLURRIES  23  16  74 W13G20    30.44R WCI  11
FREEPORT*      FLURRIES  21  16  81 W10       30.44S WCI  10
ROCHELLE*      CLOUDY    22  17  83 W14       30.44S WCI   9
DE KALB*       CLOUDY    22  17  81 W15       30.41S WCI   9
$$

ILZ005-006-012>014-019>023-090500-
NORTHEAST ILLINOIS

CITY           SKY/WX    TMP DP  RH WIND       PRES   REMARKS
CHICAGO-OHARE  PTCLDY    22  16  78 W12       30.39R WCI  10
CHICAGO-MIDWAY FLURRIES  24  14  65 W12       30.41R WCI  13
AURORA         CLOUDY    24  17  74 W12       30.43R WCI  13
LANSING*       FLURRIES  24  19  82 W10       30.42R WCI  13
JOLIET*        CLOUDY    25  19  77 W7        30.44S WCI  17
WAUKEGAN       CLEAR     22  16  78 W8        30.36R WCI  12
DUPAGE AIRPORT PTCLDY    22  15  75 W14       30.40S WCI   9
KANKAKEE*      FLURRIES  24  17  74 W9G20     30.45S WCI  14
WHEELING       CLEAR     22  15  75 W9        30.39S WCI  12
MORRIS*        FLURRIES  23  18  79 W10G16    30.44R WCI  13
ROMEOVILLE*    FLURRIES  23  20  89 W12       30.43R WCI  12
NORTHERLY ISL    N/A     25  17  72 W8          N/A  WCI  16
$$

LMZ740>746-090500-
SOUTHERN LAKE MICHIGAN

STATION/POSITION SKY/WX   TEMP    WIND        PRES    VSBY  WAVE
                          AIR SEA DIR/SP/G                  HT/PER
                          (F)     (DEG/KT/KT) (MB)    (MI)  (FT/S)
HARRISON CRIB              26     270/ 19/ 22   N/A
BURNHAM HARBOR             24     280/  9/ 15   N/A
CALUMET HARBOR             24     250/  7/ 15 1028.8R
BURNS HARBOR               27     280/ 19/ 25 1029.1R
$$

ILZ025>027-034>036-040-047-049-050-058-095>099-090500-
WEST-CENTRAL ILLINOIS

CITY           SKY/WX    TMP DP  RH WIND       PRES   REMARKS
QUINCY         CLOUDY    20  12  71 W9        30.56S WCI   9
GALESBURG*     CLOUDY    22  16  78 W9        30.51R WCI  11
MACOMB*        CLOUDY    23  15  73 W12       30.55S WCI  12
JACKSONVILLE*  CLOUDY    21  14  72 W8        30.56S WCI  12
PITTSFIELD*    CLOUDY    22  13  69 W6        30.58R WCI  15
$$

ILZ028>032-037-038-041>044-048-051>054-059>061-090500-
CENTRAL ILLINOIS

CITY           SKY/WX    TMP DP  RH WIND       PRES   REMARKS
PONTIAC        MIX PCPN  24  15  71 NW18G25   30.48R WCI   9
BLOOMINGTON    FLURRIES  21  14  74 W15       30.48S WCI   8
DECATUR        CLOUDY    21  12  68 NW13      30.53S WCI   9
PEORIA         CLOUDY    22  13  68 NW8G20    30.52S WCI  12
LACON*         CLOUDY    22  17  78 NW9       30.49S WCI  12
LINCOLN*       FLURRIES  23  15  72 W6        30.53S WCI  15
SPRINGFIELD    CLOUDY    22  14  71 W9        30.55S WCI  12
TAYLORVILLE    CLOUDY    19  13  76 CALM      30.55S
$$

ILZ033-039-045-046-055>057-062-063-090500-
EAST-CENTRAL ILLINOIS

CITY           SKY/WX    TMP DP  RH WIND       PRES   REMARKS
CHAMPAIGN      FLURRIES  21  14  74 W16       30.50S WCI   7
RANTOUL*       FLURRIES  24  17  77 W13       30.49R WCI  12
MATTOON        CLOUDY    20  11  68 NW16      30.51S WCI   6
PARIS*         LGT SNOW  21  17  84 W13       30.52S WCI   8
$$

ILZ079-100>102-090500-
SOUTHWEST ILLINOIS

CITY           SKY/WX    TMP DP  RH WIND       PRES   REMARKS
ALTON          CLOUDY    25  14  63 W14       30.58R WCI  13
BELLEVILLE     MOCLDY    24  13  63 NW12      30.57S WCI  13
CAHOKIA*       PTCLDY    25  12  58 NW13      30.59S WCI  14
SPARTA*        CLEAR     23  14  68 NW8       30.59R WCI  14
$$

ILZ064>066-069>071-074>076-080>082-084>086-088>090-092>094-090500-
SOUTH-CENTRAL ILLINOIS

CITY           SKY/WX    TMP DP  RH WIND       PRES   REMARKS
CARBONDALE     CLEAR     24  15  68 NW10      30.58S WCI  14
CAIRO*         CLEAR     26  16  65 NW9       30.58R WCI  17
EFFINGHAM*     CLOUDY    24  17  75 NW10      30.55S WCI  13
MARION         CLEAR     25  16  68 NW5       30.57S WCI  19
CENTRALIA*     CLOUDY    27  16  64 NW15G22   30.55S WCI  15
SALEM*         CLOUDY    27  15  59 NW15G22   30.55R WCI  16
METROPOLIS*    CLEAR     25  15  66 CALM      30.58R
$$

ILZ067-068-072-073-078-083-087-091-090500-
SOUTHEAST ILLINOIS

CITY           SKY/WX    TMP DP  RH WIND       PRES   REMARKS
LAWRENCEVILLE  CLOUDY    25  15  66 NW12      30.54S WCI  14
FLORA*         CLOUDY    27  17  64 NW9       30.55S WCI  18
FAIRFIELD*     CLOUDY    27  15  62 NW6       30.55R WCI  20
HARRISBURG*    CLEAR     24  17  74 NW7       30.57S WCI  16
ROBINSON*      CLOUDY    23  14  70 NW15      30.55R WCI  10
CARMI*         CLOUDY    27  16  64 NW10      30.54S WCI  17
$$

ABBREVIATIONS USED IN REMARKS
   TC - TEMPERATURE IN CELSIUS
  WCI - WIND CHILL INDEX
   HX - HEAT INDEX
  VSB - VISIBILITY
$$




USA.gov is the U.S. government's official web portal to all federal, state and local government web resources and services.